Location: Pedimozza
(42.0500°N, 9.3500°E)
Time: 09:44:09
(UTC+00:00)

Cosmos 1937 Rocket - Pass Details

Date: 19 August 2019
Orbit: 746 x 781 km, 74.0° (Epoch: 14 September)

Event Time Altitude Azimuth Distance (km) Brightness Sun altitude
Exits shadow 20:40:53 59° 114° (ESE) 893 3.5 -23.4°
Maximum altitude 20:41:02 60° 106° (ESE) 890 3.5 -23.4°
Drops below altitude 10° 20:46:16 10° 27° (NNE) 2,341 6.2 -24.1°
Sets 20:48:41 0° 24° (NNE) 3,275 7.1 -24.4°
